This is the latest recevied weather packets stored in our database for station/object ON3FV. If no packets are shown the sender has not sent any weather packets the latest 10 day(s).
| Time | Temp. | Humidity | Pressure | Rain* | Wind** | Luminosity | Snow |
|---|---|---|---|---|---|---|---|
| 1777993943 | 14.44° C | 84% | 1008.2 hPa | - | - | - | - |
| 1777992137 | 13.89° C | 85% | 1008.4 hPa | - | - | - | - |
| 1777990332 | 13.33° C | 87% | 1008.6 hPa | - | - | - | - |
| 1777989728 | 13.33° C | 87% | 1008.7 hPa | - | - | - | - |
| 1777986719 | 12.78° C | 87% | 1009.1 hPa | - | - | - | - |
| 1777984311 | 12.78° C | 87% | 1009.2 hPa | - | - | - | - |
| 1777976786 | 12.78° C | 87% | 1009.6 hPa | - | - | - | - |
| 1777975281 | 12.22° C | 88% | 1009.6 hPa | - | - | - | - |
| 1777974980 | 12.22° C | 88% | 1009.6 hPa | - | - | - | - |
| 1777973796 | 12.22° C | 87% | 1009.7 hPa | - | - | - | - |
| 1777973200 | 12.22° C | 87% | 1009.8 hPa | - | - | - | - |
| 1777972572 | 11.67° C | 87% | 1009.9 hPa | - | - | - | - |
| 1777971689 | 11.67° C | 87% | 1009.9 hPa | - | - | - | - |
| 1777971067 | 11.67° C | 87% | 1009.9 hPa | - | - | - | - |
| 1777970164 | 11.67° C | 87% | 1010 hPa | - | - | - | - |
| 1777969561 | 11.67° C | 87% | 1010 hPa | - | - | - | - |
| 1777969281 | 12.22° C | 87% | 1009.9 hPa | - | - | - | - |
| 1777967154 | 11.67° C | 87% | 1009.9 hPa | - | - | - | - |
| 1777966551 | 11.67° C | 87% | 1009.9 hPa | - | - | - | - |
| 1777965970 | 11.67° C | 87% | 1010.1 hPa | - | - | - | - |
| 1777965349 | 11.67° C | 87% | 1010.1 hPa | - | - | - | - |
| 1777965047 | 11.67° C | 87% | 1010.1 hPa | - | - | - | - |
| 1777964445 | 11.67° C | 87% | 1010.1 hPa | - | - | - | - |
| 1777959648 | 11.67° C | 88% | 1010.2 hPa | - | - | - | - |
| 1777959328 | 11.67° C | 88% | 1010.4 hPa | - | - | - | - |
* Rain since midnight (hover to see other rain measurements)
** Current wind speed in m/s (hover to see current wind gust speed)